Regional Weather Roundup
Issued by NWS

Home | Current Version | Previous Version | Graphics & Text | Print | Product List | Glossary On
Versions: 1 2 3 4 5 6 7 8 9 10 11 12 13 14 15 16 17 18 19 20 21 22 23 24 25 26 27 28 29 30 31 32 33 34 35 36 37 38 39 40 41 42 43 44 45 46 47 48 49 50
000
ASUS45 KSLC 081710
RWRUT

UTAH REGIONAL WEATHER ROUNDUP
NATIONAL WEATHER SERVICE SALT LAKE CITY UT
1000 AM MST MON FEB 08 2016

UTZ001>011-023>025-081800-

NORTHERN UTAH

CITY           SKY/WX    TMP DP  RH WIND       PRES   REMARKS
BRIGHAM CITY   MOSUNNY   19  16  88 CALM      30.73R
DUGWAY         MOSUNNY   29  26  88 S5        30.72R WCI  24
HILL AFB       MOSUNNY   28  14  56 E8        30.70R WCI  20
LOGAN          FOG       12  11  95 CALM      30.75R VSB 1/4
OGDEN          MOSUNNY   28  20  71 S6        30.71R WCI  22
PROVO AIRPORT  MOSUNNY   16  12  86 CALM      30.73R HAZE
SALT LAKE CITY PTSUNNY   30  23  75 S5        30.72R WCI  25
VERNAL         CLOUDY    14   9  80 SE3       30.64R
WENDOVER       MOSUNNY   30  25  80 E8        30.71R WCI  23
HEBER CITY     MOSUNNY   14  12  92 CALM      30.70R FOG
WEST JORDAN    SUNNY     30  23  74 SE5       30.71R WCI  25

$$

UTZ012>022-026-027-081800-

SOUTHERN/CENTRAL UTAH

CITY           SKY/WX    TMP DP  RH WIND       PRES   REMARKS
BLANDING       SUNNY     39  19  44 CALM      30.60S
BRYCE CANYON   MOSUNNY   22  10  60 N5        30.61R WCI  16
CEDAR CITY     MOSUNNY   25  17  72 CALM      30.63R
DELTA          PTSUNNY   12  11  93 CALM      30.71S
HANKSVILLE     PTSUNNY   21  18  86 CALM      30.66S
MILFORD        FLURRIES  20  32 100 CALM      30.67S
MOAB/CYNLANDS  MOSUNNY   20  17  88 W5        30.62R WCI  13
PRICE          MOSUNNY   26  17  68 CALM      30.57R
ST GEORGE      MOSUNNY   45  21  39 NW3       30.57S
KANAB          SUNNY     50  21  32 CALM      30.55S

$$

REGIONAL REPORTS     COLORADO/ARIZONA

CITY           SKY/WX    TMP DP  RH WIND       PRES   REMARKS
CRAIG, CO      CLOUDY     7   4  87 NW3       30.63R
GRAND JUNCTION CLOUDY    22  19  89 CALM      30.61S
RIFLE          CLOUDY    20  12  71 CALM      30.64R
MONTROSE       CLOUDY    28  15  58 CALM      30.62R
CORTEZ         CLOUDY    35  19  52 SE3       30.50S
PAGE, AZ       SUNNY     38  27  64 CALM      30.57F
GRAND CANYON   SUNNY     50  14  23 VRB6      30.52R
KINGMAN        SUNNY     51  21  30 NE10      30.43R
FLAGSTAFF      SUNNY     45  14  28 E14G26    30.52R

$$

REGIONAL REPORTS    NEVADA/IDAHO/WYOMING

CITY           SKY/WX    TMP DP  RH WIND       PRES   REMARKS
LAS VEGAS, NV  SUNNY     57  24  28 N10       30.44R
ELY            MOSUNNY   13  10  88 S13       30.67R WCI  -2
ELKO           PTSUNNY   15   9  76 CALM      30.70S
POCATELLO, ID  CLOUDY    26  25  96 NE5       30.74R WCI  20
BURLEY         CLOUDY    28  27  96 E14       30.69S FOG     WCI  17
EVANSTON, WY   CLOUDY    23  14  68 CALM      30.64R
ROCK SPRINGS   CLOUDY    30  19  63 SW20      30.56  WCI  17

$$




USA.gov is the U.S. government's official web portal to all federal, state and local government web resources and services.